CW3422 Weather Reports


time (UTC)temp
F
wind
direction
speed
knots
gust
knots
rain 1hr
in
rain 24hr
in
rain mn
in
humidity
%
barometer
mb
20200218230205 52 115 0.0 0.9 0.00 0.00 0.00 84 1016.7
20200218224704 53 106 0.0 0.9 0.00 0.00 0.00 85 1016.7
20200218223204 53 130 0.9 2.6 0.00 0.00 0.00 84 1016.6
20200218220704 54 138 0.9 2.6 0.00 0.00 0.00 83 1016.8
20200218220205 55 223 0.9 2.6 0.00 0.00 0.00 83 1016.6
20200218214704 55 115 0.0 2.6 0.00 0.00 0.00 82 1016.4
20200218214205 55 115 0.9 2.6 0.00 0.00 0.00 82 1016.5
20200218211705 56 105 0.9 5.2 0.00 0.00 0.00 81 1016.4
20200218211204 56 172 0.9 4.3 0.00 0.00 0.00 80 1016.5
20200218210205 57 168 1.7 4.3 0.00 0.00 0.00 79 1016.6
20200218204704 57 127 0.9 2.6 0.00 0.00 0.00 78 1016.8
20200218204206 58 203 0.9 2.6 0.00 0.00 0.00 79 1016.9
20200218203705 57 182 1.7 5.2 0.00 0.00 0.00 79 1017.0
20200218201704 59 146 1.7 2.6 0.00 0.00 0.00 77 1017.3
20200218201204 59 189 0.9 2.6 0.00 0.00 0.00 78 1017.4
20200218200704 59 121 0.9 6.1 0.00 0.00 0.00 79 1017.6
20200218200205 59 161 2.6 7.0 0.00 0.00 0.00 78 1017.5
20200218194205 59 215 1.7 2.6 0.00 0.00 0.00 78 1017.9
20200218193704 59 144 0.9 5.2 0.00 0.00 0.00 80 1018.0
20200218193205 59 147 1.7 4.3 0.00 0.00 0.00 77 1018.0
20200218191204 60 100 1.7 5.2 0.00 0.00 0.00 76 1018.1
20200218190204 60 155 0.9 5.2 0.00 0.00 0.00 75 1018.4
20200218184704 60 143 0.9 7.0 0.00 0.00 0.00 74 1018.6
20200218183705 62 283 1.7 4.3 0.00 0.00 0.00 70 1018.8
20200218183204 61 218 0.9 7.8 0.00 0.00 0.00 72 1019.0
20200218181704 61 175 1.7 6.1 0.00 0.00 0.00 76 1019.3
20200218181204 60 186 1.7 8.7 0.00 0.00 0.00 77 1019.6
20200218180704 60 134 3.5 7.0 0.00 0.00 0.00 77 1019.7
20200218180204 61 165 0.9 6.1 0.00 0.00 0.00 77 1019.8
20200218174204 60 123 2.6 8.7 0.00 0.00 0.00 78 1020.3
20200218173704 60 200 0.9 7.8 0.00 0.00 0.00 79 1020.3
20200218173204 60 147 2.6 7.0 0.00 0.00 0.00 77 1020.4
20200218171204 59 179 1.7 4.3 0.00 0.00 0.00 78 1021.0
20200218170205 59 170 2.6 5.2 0.00 0.00 0.00 78 1021.4
20200218164704 58 120 2.6 6.1 0.00 0.00 0.00 78 1021.6
20200218163704 59 82 1.7 4.3 0.00 0.00 0.00 79 1021.8
20200218163204 58 114 2.6 7.8 0.00 0.00 0.00 79 1021.9
20200218161704 59 94 1.7 4.3 0.00 0.00 0.00 78 1022.3
20200218161204 58 156 1.7 4.3 0.00 0.00 0.00 79 1022.4
20200218160704 57 96 1.7 5.2 0.00 0.00 0.00 80 1022.4
20200218160204 57 116 2.6 7.0 0.00 0.00 0.00 79 1022.6
20200218153704 56 86 2.6 6.1 0.00 0.00 0.00 79 1022.8
20200218151204 57 131 3.5 8.7 0.00 0.00 0.00 78 1023.3
20200218150704 57 215 1.7 6.1 0.00 0.00 0.00 79 1023.4
20200218150205 56 113 2.6 8.7 0.00 0.00 0.00 78 1023.2
20200218144205 53 106 2.6 7.8 0.00 0.00 0.00 80 1023.5
20200218143704 53 96 2.6 7.8 0.00 0.00 0.00 81 1023.6
20200218141704 51 87 1.7 6.1 0.00 0.00 0.00 80 1024.0
20200218141204 51 82 2.6 5.2 0.00 0.00 0.00 80 1024.1
20200218140204 51 76 1.7 7.0 0.00 0.00 0.00 78 1023.9
20200218134703 50 78 1.7 4.3 0.00 0.00 0.00 79 1023.9
20200218133704 50 93 0.9 2.6 0.00 0.00 0.00 82 1024.0
20200218133205 50 85 1.7 4.3 0.00 0.00 0.00 82 1023.9
20200218131704 47 64 0.9 2.6 0.00 0.00 0.00 86 1024.1
20200218131205 47 71 0.9 2.6 0.00 0.00 0.00 87 1024.3
20200218130704 47 82 0.9 1.7 0.00 0.00 0.00 87 1024.5
20200218130204 46 83 0.9 2.6 0.00 0.00 0.00 88 1024.5
20200218124704 45 108 0.9 2.6 0.00 0.00 0.00 89 1024.1
20200218124204 45 76 0.9 4.3 0.00 0.00 0.00 89 1024.1
20200218123706 45 75 1.7 2.6 0.00 0.00 0.00 89 1024.3
20200218123205 45 77 0.9 5.2 0.00 0.00 0.00 89 1024.3
20200218120204 44 67 1.7 6.1 0.00 0.00 0.00 89 1024.9
20200218114704 44 56 0.9 2.6 0.00 0.00 0.00 89 1024.7
20200218114204 44 64 2.6 4.3 0.00 0.00 0.00 89 1024.9
20200218113204 43 67 1.7 4.3 0.00 0.00 0.00 89 1024.9
20200218111704 44 88 0.9 2.6 0.00 0.00 0.00 88 1024.9
20200218110704 43 59 1.7 5.2 0.00 0.00 0.00 88 1024.8
20200218110204 44 57 1.7 7.0 0.00 0.00 0.00 88 1024.7
20200218104205 44 61 2.6 5.2 0.00 0.00 0.00 87 1024.5
20200218103704 44 97 1.7 4.3 0.00 0.00 0.00 87 1024.7
20200218101704 43 68 1.7 5.2 0.00 0.00 0.00 87 1024.6
20200218101203 43 75 0.9 2.6 0.00 0.00 0.00 86 1024.6
20200218100704 43 69 0.9 4.3 0.00 0.00 0.00 86 1024.6
20200218100204 43 86 1.7 4.3 0.00 0.00 0.00 86 1024.8
20200218094704 43 60 0.9 2.6 0.00 0.00 0.00 86 1025.4
20200218094204 43 84 1.7 4.3 0.00 0.00 0.00 86 1025.4
20200218091204 43 67 1.7 4.3 0.00 0.00 0.00 87 1025.1
20200218090704 43 68 0.9 2.6 0.00 0.00 0.00 87 1025.0
20200218090204 42 69 1.7 2.6 0.00 0.00 0.00 87 1025.1
20200218084704 42 73 1.7 2.6 0.00 0.00 0.00 88 1025.4
20200218083703 42 54 0.0 2.6 0.00 0.00 0.00 88 1025.5
20200218083204 42 53 0.9 2.6 0.00 0.00 0.00 88 1025.5
20200218081704 41 53 0.9 1.7 0.00 0.00 0.00 89 1025.8
20200218080704 42 67 0.9 2.6 0.00 0.00 0.00 90 1025.7
20200218074205 41 38 0.9 2.6 0.00 0.00 0.00 91 1025.8
20200218073704 41 33 1.7 2.6 0.00 0.00 0.00 91 1025.8
20200218073204 41 57 0.9 2.6 0.00 0.00 0.00 92 1025.7
20200218071704 40 74 0.0 1.7 0.00 0.00 0.00 91 1025.8
20200218071204 40 75 0.9 1.7 0.00 0.00 0.00 92 1026.0
20200218070706 40 79 0.9 2.6 0.00 0.00 0.00 93 1026.0
20200218064205 37 41 0.9 2.6 0.00 0.00 0.00 96 1025.8
20200218063706 36 41 0.0 0.9 0.00 0.00 0.00 96 1026.0
20200218063206 35 41 0.0 0.9 0.00 0.00 0.00 95 1026.2
20200218061206 33 41 0.0 0.0 0.00 0.00 0.00 95 1026.3
20200218060706 32 41 0.0 0.0 0.00 0.00 0.00 94 1026.4
20200218060206 32 41 0.0 0.0 0.00 0.00 0.00 94 1026.5
20200218054706 32 41 0.0 0.0 0.00 0.00 0.00 94 1026.7
20200218054205 32 41 0.0 0.0 0.00 0.00 0.00 94 1026.7
20200218053205 31 41 0.0 0.0 0.00 0.00 0.00 94 1026.7
20200218051706 32 41 0.0 0.0 0.00 0.00 0.00 94 1026.8
20200218051206 32 41 0.0 0.0 0.00 0.00 0.00 94 1026.8
20200218050706 32 41 0.0 0.0 0.00 0.00 0.00 94 1026.9
20200218050206 32 41 0.0 0.0 0.00 0.00 0.00 94 1027.0
20200218044706 32 41 0.0 0.0 0.00 0.00 0.00 93 1027.0
20200218044206 32 41 0.0 0.0 0.00 0.00 0.00 93 1026.9
20200218043706 32 41 0.0 0.0 0.00 0.00 0.00 94 1026.9
20200218041706 32 41 0.0 0.0 0.00 0.00 0.00 93 1026.8
20200218040705 32 41 0.0 0.0 0.00 0.00 0.00 93 1026.8
20200218034706 32 41 0.0 0.0 0.00 0.00 0.00 93 1027.1
20200218033705 33 41 0.0 0.0 0.00 0.00 0.00 93 1027.1
20200218033206 33 41 0.0 0.0 0.00 0.00 0.00 92 1027.1
20200218031705 33 41 0.0 0.0 0.00 0.00 0.00 93 1027.2
20200218031206 34 41 0.0 0.0 0.00 0.00 0.00 93 1027.2
20200218024705 34 41 0.0 0.0 0.00 0.00 0.00 92 1026.9
20200218024206 34 41 0.0 0.0 0.00 0.00 0.00 92 1027.0
20200218023205 34 41 0.0 0.0 0.00 0.00 0.00 92 1027.2
20200218021706 34 41 0.0 0.0 0.00 0.00 0.00 92 1027.4
20200218021206 35 41 0.0 0.0 0.00 0.00 0.00 91 1027.4
20200218020706 35 41 0.0 0.0 0.00 0.00 0.00 91 1027.4
20200218020207 35 41 0.0 0.9 0.00 0.00 0.00 92 1027.2
20200218014705 35 41 0.0 0.0 0.00 0.00 0.00 91 1026.8
20200218014205 35 41 0.0 0.0 0.00 0.00 0.00 91 1026.6
20200218013706 35 41 0.0 0.0 0.00 0.00 0.00 90 1026.6
20200218013206 35 41 0.0 0.0 0.00 0.00 0.00 90 1026.7
20200218011705 35 41 0.0 0.0 0.00 0.00 0.00 90 1026.7
20200218011205 35 41 0.0 0.0 0.00 0.00 0.00 89 1026.7
20200218010706 35 41 0.0 0.0 0.00 0.00 0.00 89 1026.7
20200218010205 35 41 0.0 0.0 0.00 0.00 0.00 88 1026.8
20200218004707 35 41 0.0 0.0 0.00 0.00 0.00 87 1027.0
20200218004206 36 41 0.0 0.0 0.00 0.00 0.00 86 1027.0
20200218003705 36 41 0.0 0.0 0.00 0.00 0.00 86 1026.9
20200218003206 36 41 0.0 0.0 0.00 0.00 0.00 86 1027.0
20200218001705 37 41 0.0 0.0 0.00 0.00 0.00 86 1027.0
20200218001205 37 41 0.0 0.0 0.00 0.00 0.00 85 1026.9
20200218000705 37 41 0.0 0.0 0.00 0.00 0.00 85 1026.7
20200218000205 37 41 0.0 0.0 0.00 0.00 0.00 84 1026.7
20200217234706 38 41 0.0 0.0 0.00 0.00 0.00 82 1026.4
20200217234205 39 41 0.0 0.0 0.00 0.00 0.00 81 1026.3
20200217233705 39 41 0.0 0.0 0.00 0.00 0.00 80 1026.2
20200217233205 39 41 0.0 0.0 0.00 0.00 0.00 80 1026.1
20200217231706 41 41 0.0 0.0 0.00 0.00 0.00 76 1025.8
20200217230706 41 41 0.0 0.9 0.00 0.00 0.00 74 1025.7